| time (UTC) | temp F | wind direction | speed MPH | gust MPH | rain 1hr in | rain 24hr in | rain mn in | humidity % | barometer mb |
| 20260902003205 | 63 | 99 | 0.0 | 1.0 | 0.00 | 1.24 | 1.24 | 91 | 1017.1 |
| 20260902001704 | 63 | 106 | 0.0 | 1.0 | 0.00 | 1.25 | 1.24 | 91 | 1016.9 |
| 20260902001204 | 63 | 106 | 0.0 | 3.0 | 0.00 | 1.25 | 1.24 | 91 | 1016.8 |
| 20260902000704 | 63 | 245 | 0.0 | 1.0 | 0.00 | 1.25 | 1.24 | 91 | 1016.8 |
| 20260902000204 | 64 | 245 | 0.0 | 2.0 | 0.00 | 1.25 | 1.24 | 91 | 1016.7 |
| 20260901235704 | 64 | 245 | 0.0 | 3.0 | 0.00 | 1.25 | 1.24 | 91 | 1016.7 |
| 20260901234704 | 64 | 118 | 0.0 | 1.0 | 0.00 | 1.25 | 1.24 | 91 | 1016.7 |
| 20260901234204 | 64 | 118 | 1.0 | 3.0 | 0.00 | 1.25 | 1.24 | 91 | 1016.8 |
| 20260901233704 | 64 | 203 | 1.0 | 3.0 | 0.00 | 1.25 | 1.24 | 91 | 1016.8 |
| 20260901233204 | 64 | 128 | 0.0 | 1.0 | 0.00 | 1.25 | 1.24 | 91 | 1016.7 |
| 20260901232704 | 64 | 127 | 0.0 | 1.0 | 0.00 | 1.25 | 1.24 | 91 | 1016.4 |
| 20260901231705 | 64 | 126 | 0.0 | 1.0 | 0.00 | 1.25 | 1.24 | 91 | 1016.3 |
| 20260901231205 | 65 | 127 | 0.0 | 2.0 | 0.00 | 1.25 | 1.24 | 91 | 1016.5 |
| 20260901230704 | 65 | 128 | 0.0 | 0.0 | 0.00 | 1.25 | 1.24 | 91 | 1016.6 |
| 20260901230205 | 65 | 128 | 0.0 | 1.0 | 0.00 | 1.25 | 1.24 | 91 | 1016.6 |
| 20260901225704 | 65 | 128 | 0.0 | 1.0 | 0.00 | 1.25 | 1.24 | 91 | 1016.6 |
| 20260901225204 | 66 | 128 | 1.0 | 2.0 | 0.00 | 1.25 | 1.24 | 91 | 1016.5 |
| 20260901224704 | 66 | 128 | 1.0 | 3.0 | 0.00 | 1.25 | 1.24 | 91 | 1016.4 |
| 20260901224204 | 66 | 99 | 0.0 | 1.0 | 0.00 | 1.25 | 1.24 | 91 | 1016.3 |
| 20260901223704 | 66 | 99 | 0.0 | 2.0 | 0.00 | 1.25 | 1.24 | 91 | 1016.4 |
| 20260901223204 | 66 | 93 | 0.0 | 0.0 | 0.00 | 1.25 | 1.24 | 91 | 1016.4 |
| 20260901222703 | 66 | 93 | 0.0 | 1.0 | 0.00 | 1.25 | 1.24 | 91 | 1016.3 |
| 20260901222204 | 67 | 93 | 0.0 | 1.0 | 0.00 | 1.25 | 1.24 | 91 | 1016.3 |
| 20260901221704 | 67 | 93 | 0.0 | 2.0 | 0.00 | 1.25 | 1.24 | 91 | 1016.1 |
| 20260901220704 | 67 | 89 | 1.0 | 2.0 | 0.00 | 1.25 | 1.24 | 91 | 1015.8 |
| 20260901220205 | 67 | 59 | 0.0 | 1.0 | 0.00 | 1.25 | 1.24 | 91 | 1015.9 |
| 20260901215704 | 67 | 35 | 0.0 | 1.0 | 0.01 | 1.25 | 1.24 | 91 | 1015.9 |
| 20260901215204 | 68 | 33 | 0.0 | 0.0 | 0.01 | 1.25 | 1.24 | 91 | 1015.8 |
| 20260901214704 | 68 | 33 | 0.0 | 0.0 | 0.01 | 1.25 | 1.24 | 91 | 1015.8 |
| 20260901214204 | 68 | 33 | 0.0 | 0.0 | 0.02 | 1.25 | 1.24 | 91 | 1015.8 |
| 20260901213704 | 68 | 33 | 0.0 | 1.0 | 0.02 | 1.25 | 1.24 | 91 | 1015.7 |
| 20260901213204 | 68 | 25 | 0.0 | 1.0 | 0.02 | 1.25 | 1.24 | 91 | 1015.6 |
| 20260901212704 | 69 | 25 | 0.0 | 1.0 | 0.02 | 1.25 | 1.24 | 91 | 1015.6 |
| 20260901212204 | 69 | 25 | 0.0 | 1.0 | 0.02 | 1.25 | 1.24 | 91 | 1015.6 |
| 20260901211704 | 69 | 25 | 0.0 | 1.0 | 0.02 | 1.25 | 1.24 | 91 | 1015.6 |
| 20260901211204 | 69 | 25 | 0.0 | 0.0 | 0.02 | 1.25 | 1.24 | 91 | 1015.5 |
| 20260901210704 | 69 | 25 | 0.0 | 0.0 | 0.02 | 1.25 | 1.24 | 91 | 1015.5 |
| 20260901210205 | 69 | 25 | 0.0 | 1.0 | 0.02 | 1.25 | 1.24 | 91 | 1015.5 |
| 20260901205704 | 69 | 25 | 0.0 | 0.0 | 0.01 | 1.24 | 1.23 | 91 | 1015.4 |
| 20260901204705 | 70 | 25 | 0.0 | 0.0 | 0.01 | 1.24 | 1.23 | 91 | 1015.3 |
| 20260901204205 | 70 | 25 | 0.0 | 1.0 | 0.00 | 1.23 | 1.22 | 91 | 1015.2 |
| 20260901203204 | 70 | 25 | 1.0 | 3.0 | 0.00 | 1.23 | 1.22 | 91 | 1015.2 |
| 20260901202204 | 71 | 18 | 0.0 | 1.0 | 0.00 | 1.23 | 1.22 | 91 | 1015.1 |
| 20260901201204 | 70 | 18 | 0.0 | 0.0 | 0.00 | 1.23 | 1.22 | 91 | 1015.0 |
| 20260901200204 | 70 | 18 | 0.0 | 0.0 | 0.01 | 1.23 | 1.22 | 91 | 1015.0 |
| 20260901195704 | 70 | 18 | 0.0 | 0.0 | 0.01 | 1.23 | 1.22 | 91 | 1015.1 |
| 20260901195205 | 70 | 18 | 0.0 | 1.0 | 0.02 | 1.23 | 1.22 | 91 | 1015.0 |
| 20260901194704 | 70 | 18 | 0.0 | 1.0 | 0.04 | 1.23 | 1.22 | 91 | 1015.0 |
| 20260901194204 | 70 | 18 | 0.0 | 1.0 | 0.07 | 1.23 | 1.22 | 91 | 1015.0 |
| 20260901193705 | 70 | 18 | 0.0 | 0.0 | 0.11 | 1.23 | 1.22 | 91 | 1014.9 |
| 20260901193204 | 70 | 18 | 0.0 | 1.0 | 0.11 | 1.23 | 1.22 | 91 | 1014.9 |
| 20260901192704 | 70 | 18 | 0.0 | 0.0 | 0.11 | 1.23 | 1.22 | 91 | 1014.8 |
| 20260901192204 | 70 | 18 | 0.0 | 2.0 | 0.11 | 1.23 | 1.22 | 91 | 1014.8 |
| 20260901191705 | 70 | 18 | 0.0 | 0.0 | 0.11 | 1.23 | 1.22 | 91 | 1014.8 |
| 20260901191205 | 70 | 18 | 0.0 | 2.0 | 0.11 | 1.23 | 1.22 | 91 | 1014.8 |
| 20260901190704 | 70 | 18 | 0.0 | 1.0 | 0.11 | 1.23 | 1.22 | 91 | 1014.8 |
| 20260901190204 | 70 | 18 | 0.0 | 1.0 | 0.10 | 1.22 | 1.21 | 91 | 1014.8 |
| 20260901185704 | 70 | 18 | 0.0 | 0.0 | 0.10 | 1.22 | 1.21 | 91 | 1014.8 |
| 20260901185203 | 70 | 18 | 0.0 | 0.0 | 0.11 | 1.21 | 1.20 | 91 | 1014.9 |
| 20260901184705 | 70 | 18 | 0.0 | 0.0 | 0.12 | 1.19 | 1.18 | 91 | 1014.8 |
| 20260901184204 | 70 | 18 | 0.0 | 0.0 | 0.13 | 1.16 | 1.15 | 91 | 1014.9 |
| 20260901183704 | 70 | 18 | 1.0 | 2.0 | 0.10 | 1.12 | 1.11 | 91 | 1014.9 |
| 20260901183205 | 70 | 18 | 0.0 | 1.0 | 0.11 | 1.12 | 1.11 | 91 | 1015.0 |
| 20260901182205 | 70 | 18 | 0.0 | 0.0 | 0.35 | 1.12 | 1.11 | 91 | 1014.8 |
| 20260901180711 | 70 | 18 | 1.0 | 2.0 | 0.56 | 1.12 | 1.11 | 91 | 1014.8 |
| 20260901180203 | 70 | 18 | 0.0 | 0.0 | 0.65 | 1.12 | 1.11 | 91 | 1014.8 |
| 20260901175204 | 70 | 18 | 0.0 | 0.0 | 0.66 | 1.07 | 1.06 | 91 | 1014.7 |
| 20260901174704 | 70 | 18 | 0.0 | 1.0 | 0.63 | 1.04 | 1.03 | 91 | 1014.6 |
| 20260901174204 | 70 | 18 | 1.0 | 2.0 | 0.61 | 1.02 | 1.01 | 91 | 1014.7 |
| 20260901173704 | 70 | 18 | 1.0 | 2.0 | 0.61 | 1.02 | 1.01 | 91 | 1014.7 |
| 20260901173204 | 70 | 18 | 0.0 | 3.0 | 0.55 | 0.96 | 0.95 | 91 | 1014.6 |
| 20260901172704 | 70 | 14 | 1.0 | 3.0 | 0.41 | 0.82 | 0.81 | 91 | 1014.8 |
| 20260901172205 | 70 | 128 | 1.0 | 3.0 | 0.36 | 0.77 | 0.76 | 91 | 1014.6 |
| 20260901171204 | 70 | 130 | 1.0 | 2.0 | 0.20 | 0.61 | 0.60 | 91 | 1014.5 |
| 20260901170703 | 70 | 130 | 0.0 | 0.0 | 0.15 | 0.56 | 0.55 | 91 | 1014.5 |
| 20260901170204 | 70 | 130 | 0.0 | 2.0 | 0.06 | 0.47 | 0.46 | 91 | 1014.6 |
| 20260901165704 | 70 | 130 | 0.0 | 2.0 | 0.02 | 0.43 | 0.42 | 91 | 1014.6 |
| 20260901165204 | 70 | 130 | 2.0 | 3.0 | 0.00 | 0.41 | 0.40 | 91 | 1014.5 |
| 20260901164704 | 70 | 131 | 0.0 | 1.0 | 0.00 | 0.41 | 0.40 | 91 | 1014.3 |
| 20260901164203 | 70 | 131 | 0.0 | 1.0 | 0.00 | 0.41 | 0.40 | 91 | 1014.3 |
| 20260901163703 | 69 | 131 | 1.0 | 2.0 | 0.00 | 0.41 | 0.40 | 91 | 1014.3 |
| 20260901162703 | 69 | 126 | 1.0 | 3.0 | 0.00 | 0.41 | 0.40 | 91 | 1014.4 |
| 20260901162204 | 69 | 47 | 0.0 | 2.0 | 0.00 | 0.41 | 0.40 | 91 | 1014.5 |
| 20260901161703 | 69 | 38 | 1.0 | 3.0 | 0.00 | 0.41 | 0.40 | 91 | 1014.9 |
| 20260901161204 | 69 | 28 | 2.0 | 3.0 | 0.00 | 0.41 | 0.40 | 91 | 1015.1 |
| 20260901160704 | 69 | 151 | 1.0 | 3.0 | 0.00 | 0.41 | 0.40 | 91 | 1015.0 |
| 20260901160204 | 69 | 156 | 1.0 | 2.0 | 0.00 | 0.41 | 0.40 | 91 | 1014.9 |
| 20260901155703 | 69 | 156 | 0.0 | 0.0 | 0.00 | 0.41 | 0.40 | 91 | 1014.8 |
| 20260901155203 | 69 | 156 | 0.0 | 0.0 | 0.00 | 0.41 | 0.40 | 91 | 1014.9 |
| 20260901154704 | 69 | 156 | 0.0 | 0.0 | 0.00 | 0.41 | 0.40 | 91 | 1014.9 |
| 20260901154204 | 69 | 156 | 0.0 | 0.0 | 0.00 | 0.41 | 0.40 | 91 | 1014.8 |
| 20260901153704 | 69 | 156 | 0.0 | 0.0 | 0.00 | 0.41 | 0.40 | 91 | 1014.7 |
| 20260901153204 | 70 | 162 | 0.0 | 0.0 | 0.00 | 0.41 | 0.40 | 91 | 1014.8 |
| 20260901152704 | 70 | 162 | 0.0 | 0.0 | 0.00 | 0.41 | 0.40 | 91 | 1014.9 |
| 20260901152204 | 70 | 162 | 0.0 | 1.0 | 0.00 | 0.41 | 0.40 | 91 | 1014.7 |
| 20260901151703 | 70 | 162 | 0.0 | 3.0 | 0.00 | 0.41 | 0.40 | 91 | 1014.7 |
| 20260901151203 | 71 | 168 | 0.0 | 2.0 | 0.00 | 0.41 | 0.40 | 91 | 1014.5 |
| 20260901150703 | 70 | 168 | 0.0 | 1.0 | 0.00 | 0.41 | 0.40 | 91 | 1014.6 |
| 20260901150203 | 70 | 220 | 0.0 | 2.0 | 0.00 | 0.41 | 0.40 | 91 | 1014.7 |
| 20260901145703 | 70 | 220 | 0.0 | 2.0 | 0.01 | 0.41 | 0.40 | 91 | 1014.8 |
| 20260901145204 | 70 | 220 | 0.0 | 3.0 | 0.01 | 0.41 | 0.40 | 91 | 1014.9 |
| 20260901143703 | 70 | 184 | 1.0 | 3.0 | 0.02 | 0.41 | 0.40 | 91 | 1015.0 |
| 20260901143205 | 70 | 183 | 0.0 | 0.0 | 0.03 | 0.41 | 0.40 | 91 | 1014.9 |
| 20260901142704 | 69 | 183 | 0.0 | 0.0 | 0.03 | 0.41 | 0.40 | 91 | 1015.0 |
| 20260901141704 | 69 | 183 | 0.0 | 0.0 | 0.03 | 0.41 | 0.40 | 91 | 1015.2 |
| 20260901140704 | 69 | 183 | 0.0 | 0.0 | 0.03 | 0.41 | 0.40 | 91 | 1015.2 |
| 20260901140204 | 69 | 183 | 0.0 | 0.0 | 0.03 | 0.41 | 0.40 | 91 | 1015.3 |
| 20260901135704 | 69 | 183 | 0.0 | 0.0 | 0.02 | 0.40 | 0.39 | 91 | 1015.3 |
| 20260901135203 | 69 | 183 | 0.0 | 0.0 | 0.02 | 0.40 | 0.39 | 91 | 1015.5 |
| 20260901134704 | 69 | 183 | 0.0 | 0.0 | 0.02 | 0.40 | 0.39 | 91 | 1015.5 |
| 20260901134203 | 68 | 183 | 0.0 | 1.0 | 0.02 | 0.39 | 0.38 | 91 | 1015.7 |
| 20260901133704 | 69 | 183 | 0.0 | 2.0 | 0.04 | 0.39 | 0.38 | 91 | 1015.5 |
| 20260901133204 | 69 | 183 | 1.0 | 3.0 | 0.05 | 0.38 | 0.37 | 91 | 1015.6 |
| 20260901132703 | 69 | 183 | 1.0 | 2.0 | 0.07 | 0.38 | 0.37 | 91 | 1015.7 |
| 20260901131704 | 69 | 183 | 1.0 | 2.0 | 0.08 | 0.38 | 0.37 | 91 | 1015.5 |
| 20260901131203 | 69 | 183 | 0.0 | 0.0 | 0.08 | 0.38 | 0.37 | 91 | 1015.4 |
| 20260901130703 | 69 | 183 | 0.0 | 1.0 | 0.08 | 0.38 | 0.37 | 91 | 1015.5 |
| 20260901130203 | 69 | 183 | 0.0 | 3.0 | 0.09 | 0.38 | 0.37 | 91 | 1015.5 |
| 20260901125704 | 69 | 183 | 1.0 | 2.0 | 0.09 | 0.38 | 0.37 | 91 | 1015.4 |
| 20260901124203 | 68 | 183 | 0.0 | 0.0 | 0.08 | 0.37 | 0.36 | 91 | 1015.6 |
| 20260901123203 | 68 | 183 | 1.0 | 2.0 | 0.04 | 0.33 | 0.32 | 91 | 1015.5 |
| 20260901122204 | 69 | 183 | 0.0 | 1.0 | 0.01 | 0.30 | 0.29 | 91 | 1015.7 |
| 20260901121203 | 68 | 183 | 0.0 | 0.0 | 0.02 | 0.30 | 0.29 | 91 | 1015.6 |
| 20260901120704 | 68 | 183 | 0.0 | 1.0 | 0.02 | 0.30 | 0.29 | 91 | 1015.6 |
| 20260901120204 | 68 | 183 | 0.0 | 0.0 | 0.01 | 0.29 | 0.28 | 91 | 1015.6 |
| 20260901115704 | 68 | 183 | 0.0 | 0.0 | 0.02 | 0.29 | 0.28 | 91 | 1015.5 |
| 20260901115204 | 68 | 183 | 0.0 | 0.0 | 0.03 | 0.29 | 0.28 | 91 | 1015.5 |
| 20260901114704 | 68 | 183 | 0.0 | 1.0 | 0.03 | 0.29 | 0.28 | 91 | 1015.5 |
| 20260901114203 | 68 | 183 | 0.0 | 1.0 | 0.11 | 0.29 | 0.28 | 91 | 1015.5 |
| 20260901112704 | 68 | 183 | 0.0 | 0.0 | 0.15 | 0.29 | 0.28 | 91 | 1015.3 |
| 20260901112204 | 68 | 183 | 0.0 | 0.0 | 0.16 | 0.29 | 0.28 | 91 | 1015.3 |
| 20260901111204 | 68 | 183 | 0.0 | 0.0 | 0.16 | 0.28 | 0.27 | 91 | 1015.4 |
| 20260901110705 | 68 | 183 | 0.0 | 0.0 | 0.16 | 0.28 | 0.27 | 91 | 1015.4 |
| 20260901105703 | 68 | 183 | 0.0 | 1.0 | 0.18 | 0.27 | 0.26 | 90 | 1015.2 |
| 20260901104704 | 68 | 173 | 0.0 | 1.0 | 0.20 | 0.26 | 0.25 | 90 | 1015.0 |
| 20260901104203 | 68 | 173 | 0.0 | 1.0 | 0.13 | 0.18 | 0.17 | 90 | 1015.5 |
| 20260901103204 | 68 | 173 | 0.0 | 1.0 | 0.10 | 0.14 | 0.13 | 90 | 1015.0 |
| 20260901102703 | 68 | 173 | 0.0 | 0.0 | 0.10 | 0.14 | 0.13 | 90 | 1015.1 |
| 20260901102203 | 68 | 173 | 0.0 | 1.0 | 0.09 | 0.13 | 0.12 | 90 | 1015.1 |
| 20260901101703 | 67 | 173 | 0.0 | 3.0 | 0.09 | 0.12 | 0.11 | 90 | 1015.1 |
| 20260901101203 | 68 | 160 | 0.0 | 3.0 | 0.10 | 0.12 | 0.11 | 90 | 1015.0 |
| 20260901100703 | 68 | 156 | 0.0 | 2.0 | 0.10 | 0.12 | 0.11 | 90 | 1015.0 |
| 20260901100204 | 68 | 156 | 0.0 | 0.0 | 0.08 | 0.10 | 0.09 | 90 | 1014.9 |
| 20260901095703 | 68 | 156 | 0.0 | 0.0 | 0.07 | 0.09 | 0.08 | 90 | 1015.0 |
| 20260901095203 | 68 | 156 | 0.0 | 0.0 | 0.06 | 0.08 | 0.07 | 90 | 1015.0 |
| 20260901094703 | 68 | 156 | 0.0 | 0.0 | 0.04 | 0.06 | 0.05 | 90 | 1015.0 |
| 20260901094203 | 68 | 156 | 0.0 | 0.0 | 0.03 | 0.05 | 0.04 | 90 | 1015.0 |
| 20260901093203 | 68 | 156 | 0.0 | 0.0 | 0.02 | 0.04 | 0.03 | 90 | 1015.1 |
| 20260901092703 | 68 | 156 | 0.0 | 0.0 | 0.02 | 0.04 | 0.03 | 90 | 1015.1 |
| 20260901092203 | 68 | 156 | 0.0 | 1.0 | 0.02 | 0.04 | 0.03 | 90 | 1015.2 |
| 20260901091704 | 68 | 156 | 0.0 | 1.0 | 0.01 | 0.03 | 0.02 | 90 | 1015.3 |
| 20260901091204 | 68 | 156 | 0.0 | 0.0 | 0.00 | 0.02 | 0.01 | 90 | 1015.2 |
| 20260901090704 | 67 | 156 | 0.0 | 0.0 | 0.00 | 0.02 | 0.01 | 90 | 1015.2 |
| 20260901090204 | 67 | 156 | 0.0 | 0.0 | 0.00 | 0.02 | 0.01 | 90 | 1015.3 |
| 20260901085703 | 67 | 156 | 0.0 | 0.0 | 0.01 | 0.02 | 0.01 | 90 | 1015.4 |
| 20260901085203 | 67 | 156 | 0.0 | 0.0 | 0.01 | 0.02 | 0.01 | 90 | 1015.5 |
| 20260901084703 | 67 | 156 | 0.0 | 1.0 | 0.01 | 0.02 | 0.01 | 90 | 1015.6 |
| 20260901084204 | 67 | 156 | 0.0 | 1.0 | 0.01 | 0.02 | 0.01 | 90 | 1015.6 |
| 20260901083704 | 67 | 156 | 0.0 | 0.0 | 0.01 | 0.02 | 0.01 | 90 | 1015.6 |
| 20260901083204 | 67 | 156 | 0.0 | 0.0 | 0.01 | 0.02 | 0.01 | 90 | 1015.6 |
| 20260901082703 | 67 | 156 | 0.0 | 0.0 | 0.01 | 0.02 | 0.01 | 90 | 1015.5 |
| 20260901082204 | 67 | 156 | 0.0 | 0.0 | 0.01 | 0.02 | 0.01 | 90 | 1015.7 |
| 20260901081203 | 67 | 156 | 0.0 | 0.0 | 0.01 | 0.02 | 0.01 | 90 | 1015.9 |
| 20260901080703 | 67 | 156 | 0.0 | 1.0 | 0.01 | 0.02 | 0.01 | 90 | 1016.0 |
| 20260901075705 | 67 | 156 | 0.0 | 1.0 | 0.00 | 0.01 | 0.00 | 90 | 1016.0 |
| 20260901075204 | 67 | 156 | 0.0 | 0.0 | 0.00 | 0.01 | 0.00 | 90 | 1016.0 |
| 20260901074704 | 67 | 156 | 0.0 | 0.0 | 0.00 | 0.01 | 0.00 | 90 | 1016.0 |
| 20260901074204 | 67 | 156 | 0.0 | 1.0 | 0.00 | 0.01 | 0.00 | 90 | 1016.0 |
| 20260901073703 | 67 | 156 | 0.0 | 1.0 | 0.00 | 0.01 | 0.00 | 90 | 1016.1 |
| 20260901072703 | 67 | 156 | 0.0 | 0.0 | 0.00 | 0.01 | 0.00 | 89 | 1016.1 |
| 20260901072203 | 67 | 156 | 0.0 | 0.0 | 0.00 | 0.01 | 0.00 | 89 | 1016.2 |
| 20260901071703 | 67 | 156 | 0.0 | 1.0 | 0.00 | 0.01 | 0.00 | 89 | 1016.2 |
| 20260901071203 | 67 | 156 | 0.0 | 0.0 | 0.00 | 0.01 | 0.00 | 89 | 1016.0 |
| 20260901070204 | 67 | 156 | 0.0 | 0.0 | 0.00 | 0.01 | 0.00 | 89 | 1016.0 |
| 20260901065704 | 67 | 156 | 0.0 | 0.0 | 0.00 | 0.01 | 0.00 | 89 | 1016.1 |
| 20260901065204 | 67 | 156 | 0.0 | 0.0 | 0.00 | 0.01 | 0.00 | 89 | 1016.1 |
| 20260901064704 | 67 | 156 | 0.0 | 0.0 | 0.00 | 0.01 | 0.00 | 89 | 1016.3 |
| 20260901063704 | 67 | 156 | 0.0 | 0.0 | 0.00 | 0.01 | 0.00 | 89 | 1016.5 |
| 20260901063204 | 67 | 156 | 0.0 | 1.0 | 0.00 | 0.01 | 0.00 | 89 | 1016.6 |
| 20260901062704 | 67 | 156 | 0.0 | 1.0 | 0.00 | 0.01 | 0.00 | 89 | 1016.8 |
| 20260901062204 | 67 | 156 | 0.0 | 1.0 | 0.00 | 0.01 | 0.00 | 89 | 1016.9 |
| 20260901061704 | 67 | 156 | 0.0 | 1.0 | 0.00 | 0.01 | 0.00 | 89 | 1016.9 |
| 20260901061204 | 67 | 156 | 1.0 | 2.0 | 0.00 | 0.01 | 0.00 | 89 | 1016.9 |
| 20260901060204 | 67 | 156 | 0.0 | 1.0 | 0.00 | 0.01 | 0.00 | 89 | 1016.8 |
| 20260901055705 | 67 | 156 | 0.0 | 1.0 | 0.00 | 0.01 | 0.00 | 89 | 1016.7 |
| 20260901055204 | 67 | 156 | 0.0 | 0.0 | 0.00 | 0.01 | 0.00 | 89 | 1016.7 |
| 20260901054204 | 67 | 156 | 0.0 | 1.0 | 0.00 | 0.01 | 0.00 | 89 | 1016.8 |
| 20260901053704 | 67 | 156 | 1.0 | 1.0 | 0.00 | 0.01 | 0.00 | 89 | 1016.6 |
| 20260901053204 | 67 | 156 | 0.0 | 1.0 | 0.00 | 0.01 | 0.00 | 89 | 1016.5 |
| 20260901052704 | 67 | 156 | 0.0 | 0.0 | 0.00 | 0.01 | 0.00 | 89 | 1016.6 |
| 20260901052205 | 67 | 156 | 0.0 | 0.0 | 0.00 | 0.01 | 0.00 | 89 | 1016.9 |
| 20260901051704 | 67 | 156 | 0.0 | 0.0 | 0.00 | 0.01 | 0.00 | 89 | 1017.2 |
| 20260901050704 | 67 | 156 | 0.0 | 0.0 | 0.00 | 0.01 | 0.00 | 89 | 1017.3 |
| 20260901050203 | 67 | 156 | 0.0 | 0.0 | 0.00 | 0.01 | 0.00 | 89 | 1017.3 |
| 20260901045704 | 67 | 156 | 0.0 | 1.0 | 0.00 | 0.01 | 0.00 | 89 | 1017.4 |
| 20260901045204 | 67 | 156 | 0.0 | 0.0 | 0.00 | 0.01 | 0.00 | 89 | 1017.3 |
| 20260901044704 | 67 | 156 | 0.0 | 1.0 | 0.00 | 0.01 | 0.00 | 89 | 1017.3 |
| 20260901044204 | 67 | 156 | 0.0 | 1.0 | 0.00 | 0.01 | 0.00 | 89 | 1017.3 |
| 20260901043704 | 67 | 156 | 0.0 | 2.0 | 0.00 | 0.01 | 0.00 | 89 | 1017.1 |
| 20260901042704 | 67 | 156 | 0.0 | 1.0 | 0.00 | 0.01 | 0.00 | 89 | 1017.1 |
| 20260901041204 | 67 | 156 | 0.0 | 1.0 | 0.00 | 0.01 | 0.00 | 89 | 1017.1 |
| 20260901040704 | 67 | 156 | 0.0 | 1.0 | 0.00 | 0.01 | 0.00 | 89 | 1017.1 |
| 20260901040204 | 67 | 156 | 0.0 | 0.0 | 0.00 | 0.01 | 0.00 | 89 | 1017.1 |
| 20260901035704 | 67 | 156 | 0.0 | 0.0 | 0.00 | 0.01 | 0.01 | 89 | 1017.1 |
| 20260901035204 | 67 | 156 | 0.0 | 0.0 | 0.00 | 0.01 | 0.01 | 89 | 1017.2 |
| 20260901034704 | 67 | 156 | 0.0 | 0.0 | 0.00 | 0.01 | 0.01 | 89 | 1017.4 |
| 20260901033704 | 67 | 156 | 0.0 | 0.0 | 0.00 | 0.01 | 0.01 | 89 | 1017.5 |
| 20260901033204 | 67 | 156 | 0.0 | 0.0 | 0.00 | 0.01 | 0.01 | 89 | 1017.5 |
| 20260901032704 | 67 | 156 | 0.0 | 0.0 | 0.00 | 0.01 | 0.01 | 89 | 1017.5 |
| 20260901032204 | 67 | 156 | 0.0 | 0.0 | 0.00 | 0.01 | 0.01 | 88 | 1017.6 |
| 20260901031704 | 67 | 156 | 0.0 | 0.0 | 0.00 | 0.01 | 0.01 | 88 | 1017.6 |
| 20260901031205 | 67 | 156 | 0.0 | 0.0 | 0.00 | 0.01 | 0.01 | 88 | 1017.6 |
| 20260901030704 | 67 | 156 | 0.0 | 0.0 | 0.00 | 0.01 | 0.01 | 88 | 1017.6 |
| 20260901030205 | 67 | 156 | 0.0 | 0.0 | 0.00 | 0.01 | 0.01 | 88 | 1017.6 |
| 20260901025704 | 67 | 156 | 0.0 | 0.0 | 0.00 | 0.01 | 0.01 | 88 | 1017.7 |
| 20260901024704 | 67 | 156 | 0.0 | 0.0 | 0.00 | 0.01 | 0.01 | 88 | 1017.8 |
| 20260901023704 | 67 | 156 | 0.0 | 1.0 | 0.00 | 0.01 | 0.01 | 88 | 1017.8 |
| 20260901023204 | 67 | 156 | 0.0 | 1.0 | 0.00 | 0.01 | 0.01 | 88 | 1017.9 |
| 20260901022704 | 67 | 156 | 0.0 | 0.0 | 0.00 | 0.01 | 0.01 | 88 | 1017.9 |
| 20260901022205 | 67 | 156 | 0.0 | 0.0 | 0.00 | 0.01 | 0.01 | 88 | 1018.0 |
| 20260901021204 | 67 | 156 | 0.0 | 1.0 | 0.00 | 0.01 | 0.01 | 87 | 1018.0 |
| 20260901020703 | 67 | 156 | 0.0 | 1.0 | 0.00 | 0.01 | 0.01 | 87 | 1018.0 |
| 20260901020203 | 67 | 156 | 0.0 | 1.0 | 0.00 | 0.01 | 0.01 | 87 | 1018.0 |
| 20260901015704 | 67 | 156 | 0.0 | 1.0 | 0.00 | 0.01 | 0.01 | 87 | 1017.9 |
| 20260901015204 | 67 | 156 | 0.0 | 2.0 | 0.00 | 0.01 | 0.01 | 87 | 1017.8 |
| 20260901014204 | 67 | 156 | 0.0 | 1.0 | 0.00 | 0.01 | 0.01 | 87 | 1017.7 |
| 20260901013204 | 68 | 156 | 0.0 | 1.0 | 0.00 | 0.01 | 0.01 | 87 | 1017.8 |
| 20260901012703 | 67 | 156 | 0.0 | 1.0 | 0.00 | 0.01 | 0.01 | 87 | 1017.8 |
| 20260901012206 | 67 | 156 | 0.0 | 2.0 | 0.01 | 0.01 | 0.01 | 87 | 1017.8 |
| 20260901011704 | 67 | 156 | 1.0 | 2.0 | 0.01 | 0.01 | 0.01 | 87 | 1018.0 |
| 20260901011204 | 67 | 237 | 0.0 | 1.0 | 0.01 | 0.01 | 0.01 | 87 | 1018.0 |
| 20260901010705 | 67 | 237 | 0.0 | 1.0 | 0.01 | 0.01 | 0.01 | 87 | 1018.0 |
| 20260901010204 | 67 | 237 | 0.0 | 2.0 | 0.01 | 0.01 | 0.01 | 86 | 1018.0 |
| 20260901004704 | 68 | 234 | 0.0 | 1.0 | 0.01 | 0.01 | 0.01 | 86 | 1018.0 |